User: anonymous   Login
Location: Unspecified
(0.0000°N, 0.0000°E)
Time: 06:21:48
(UTC+02:00)
Language:

Cosmos 1703 Rocket - Orbit

View from above orbital plane
View from above orbital plane
View from above satellite
View from above satellite

Ground track
Ground track

The orbit data is extracted from the following two-line orbital elements,

1 16263U 85108B   16206.19510271  .00000089  00000-0  79858-5 0  9990
2 16263  82.5024  62.0067 0019900 352.9454 146.4714 14.82929869655778
Epoch (UTC): 24 July 2016 04:40:56
Eccentricity: 0.0019900
inclination: 82.5024°
perigee height: 606 km
apogee height: 634 km
right ascension of ascending node: 62.0067°
argument of perigee: 352.9454°
revolutions per day: 14.82929869
mean anomaly at epoch: 146.4714°
orbit number at epoch: 65577

The dashed part of the orbit path shows where the satellite is in the earth's shadow,  

DLR